Torna al catalogo

DELTA 1 DEB

AttivoSSO
NORAD 13525·DEBRIS·🇺🇸 United States

Lanciato Nov 6, 1973 da Vandenberg Space Force Base

Loading…

Prossimi Passaggi (prossime 24 ore)

TLE

AggiornatoSource: Space-Track

Epoca: Sep 14, 2026, 09:41 UTC

1 13525U 73086GN  26257.40367861  .00000000  00000-0  29397-3 0  9990
2 13525 101.9588 236.0689 0076900 178.7802 341.2977 12.51234089108006

Traccia DELTA 1 DEB in tempo reale con AllMySat

Download on the App Store